CAPE
303 128 520 0 130 561 16 420 292 163 247 171 169 326 296 476 345 282 367 567 641 510 555 493 640 570 589 451 532 623 576 473 481 399 458 305 248 385 190 213 193 146
188 369 1092 667 878 1024 193 19 207 14 111 98 78 126 435 233 182 301 599 341 525 377 470 521 383 358 365 434 378 414 421 534 437 772 381 268 286 186 237 180 123 184
344 586 301 90 155 288 62 20 388 116 5 0 268 314 96 308 414 408 88 192 184 344 455 493 407 371 412 443 384 481 501 336 332 451 444 176 273 264 194 187 258 247
319 394 77 144 157 258 153 319 182 3 1 99 282 436 320 209 52 14 223 1094 588 444 484 554 458 351 351 272 299 328 414 483 429 406 273 363 453 421 351 343 463 353
198 267 164 227 170 289 159 13 0 27 91 108 121 0 75 127 274 283 178 276 428 420 277 298 527 664 577 530 424 378 528 546 631 617 422 319 355 585 602 412 290 161
363 135 138 165 271 146 60 0 1 0 0 36 12 210 204 177 30 2 133 114 91 90 69 129 177 336 401 415 422 388 364 520 714 778 672 604 581 614 568 321 273 130
432 204 160 167 214 168 2 0 0 16 2 0 31 31 81 16 12 94 104 97 173 271 211 228 427 464 618 653 548 504 651 703 699 714 690 642 614 659 617 383 285 162
201 144 199 190 166 76 152 7 0 0 8 114 83 95 172 47 50 117 256 338 250 209 298 396 401 413 312 465 524 604 609 552 459 489 583 598 518 529 639 323 240 147
159 58 102 163 125 182 46 50 26 1 18 63 33 22 147 90 110 161 215 201 197 182 149 215 268 294 478 636 528 480 439 439 580 691 771 766 631 569 512 310 282 207
348 270 239 201 197 218 175 97 51 7 29 29 81 75 48 284 215 175 181 210 204 277 248 224 283 369 519 608 573 603 520 407 423 397 507 540 465 503 533 369 295 208
408 492 403 292 276 246 235 112 18 1 113 130 34 10 7 8 242 286 232 251 235 185 196 268 299 360 495 766 826 756 678 586 506 400 317 304 416 523 559 440 321 246
365 464 339 304 197 109 71 28 7 23 0 10 27 70 107 84 0 34 121 14 44 176 276 186 160 272 510 788 880 915 883 771 659 575 566 661 707 621 530 438 338 307
378 277 375 276 251 160 62 33 64 1 4 1 7 9 2 0 0 0 0 12 238 418 279 194 142 197 259 580 851 879 839 790 728 708 716 773 767 666 578 512 437 359
278 346 325 290 274 259 235 161 59 68 57 81 99 1 3 4 1 0 0 111 74 23 2 10 6 23 60 466 859 984 1051 1041 1004 935 825 748 737 672 581 531 468 401
338 421 285 505 551 480 383 226 100 122 103 56 22 99 172 31 21 34 44 58 49 18 8 40 281 401 543 938 1062 1317 1411 1340 1188 994 884 802 562 444 493 529 511 443
424 475 411 501 476 398 326 147 85 144 199 184 206 248 192 366 295 200 274 143 22 21 226 253 36 366 740 730 1378 1467 1485 1373 1210 1098 965 673 501 552 646 650 546 352
691 773 671 601 454 291 279 228 233 302 291 230 229 304 338 310 438 329 103 21 9 9 1 1 121 757 364 240 345 755 922 962 999 937 793 662 745 817 753 607 430 226
406 592 617 553 474 405 406 267 264 308 329 406 413 473 457 497 467 375 205 204 129 19 7 81 432 510 286 132 134 140 230 442 514 691 855 942 857 672 583 511 495 423
247 535 479 508 453 429 428 422 431 414 400 418 520 548 589 607 606 566 506 266 281 216 240 173 113 258 232 42 1 5 18 110 310 482 646 694 662 634 692 714 621 445
567 584 535 547 530 584 533 542 528 475 448 520 555 635 655 635 599 417 126 87 27 25 184 411 438 343 239 208 174 124 0 6 78 158 364 478 567 646 726 775 723 570
775 659 714 626 680 668 682 611 592 591 663 698 692 630 653 626 445 392 315 252 350 565 583 652 670 556 428 0 0 0 0 0 3 104 289 422 535 680 838 906 881 705
855 770 765 755 751 720 673 640 624 637 638 674 833 877 816 696 545 595 518 244 219 527 549 418 425 182 0 12 46 43 0 0 0 8 53 183 380 590 832 990 934 730
850 809 754 729 677 689 654 671 675 660 672 982 1099 917 709 519 463 319 346 97 123 384 464 86 80 0 0 0 4 20 0 0 0 38 190 440 705 983 1115 1087 967 845
1017 851 782 709 660 616 620 619 678 834 965 1264 920 665 536 507 508 482 402 140 192 184 62 0 0 0 0 0 0 0 0 34 108 142 176 294 531 741 903 976 988 1333
1172 965 829 698 572 508 488 512 548 717 960 1109 672 480 466 403 426 313 179 133 111 0 102 0 0 11 0 0 0 0 0 0 7 74 300 420 634 918 1062 1077 977 932
1296 1083 907 768 552 413 428 447 533 624 579 784 653 561 337 339 521 218 175 145 2 0 0 0 54 89 102 0 0 0 0 0 1 226 658 945 971 978 972 837 745 685
Wind_Speed
29 29 29 nan 28 29 nan 29 30 31 31 31 30 29 29 28 29 29 29 31 32 33 34 34 36 37 37 37 38 39 40 41 41 41 43 43 41 42 41 39 39 41
28 29 29 29 29 29 29 nan 30 nan 32 nan nan 30 29 29 28 28 30 31 32 33 34 36 36 37 37 38 38 38 39 40 41 42 43 42 42 43 42 41 40 40
28 29 31 nan 30 30 nan nan 30 31 nan nan 30 31 nan 28 28 30 nan 32 32 33 34 35 36 36 37 38 39 40 40 41 41 42 43 42 43 43 41 41 41 42
29 31 nan 31 30 30 29 30 30 nan nan nan 30 30 31 30 nan nan 30 32 33 34 34 35 35 36 37 38 39 40 42 42 42 43 43 43 43 44 42 42 43 43
31 31 32 31 30 30 32 nan nan nan nan 30 32 nan nan 29 31 32 33 33 35 35 35 35 36 37 38 39 41 41 42 42 42 44 44 43 43 44 43 44 44 43
30 31 32 31 29 30 nan nan nan nan nan nan nan 31 33 34 nan nan 34 35 nan nan nan 37 37 38 38 39 40 41 41 42 43 44 44 44 44 45 44 46 46 46
32 31 31 29 29 31 nan nan nan nan nan nan nan nan nan nan nan nan 34 nan 36 38 38 39 39 39 39 40 41 40 41 43 43 44 44 45 46 45 47 47 47 47
33 32 31 29 31 nan 34 nan nan nan nan 28 nan nan 30 nan nan 32 34 36 37 38 39 40 41 41 41 42 43 42 42 43 43 45 45 45 46 47 49 49 49 48
34 nan 32 31 33 35 nan nan nan nan nan nan nan nan 28 nan 32 34 36 38 39 40 41 41 41 41 42 44 44 44 42 42 43 46 47 46 46 47 48 50 50 49
34 33 34 34 36 36 35 nan nan nan nan nan nan nan nan 31 34 36 38 40 41 40 41 41 41 41 42 44 46 45 44 44 44 46 47 48 48 48 49 50 49 48
35 34 34 34 36 36 35 35 nan nan 33 32 nan nan nan nan 35 37 40 41 42 41 42 43 43 43 43 45 46 45 45 45 46 47 48 49 50 50 49 49 48 47
35 33 33 34 36 36 nan nan nan nan nan nan nan nan 33 nan nan nan 40 nan nan 43 45 46 45 45 45 46 46 46 45 46 46 47 48 50 51 50 48 48 47 44
33 31 32 35 36 36 nan nan nan nan nan nan nan nan nan nan nan nan nan nan 44 46 47 46 45 45 45 46 46 46 47 47 47 48 48 49 48 47 46 46 44 42
29 30 32 35 36 35 35 35 nan nan nan nan nan nan nan nan nan nan nan 44 nan nan nan nan nan nan nan 45 46 47 48 47 47 48 48 46 45 45 45 43 41 39
28 30 33 35 35 36 35 35 34 34 34 nan nan nan 38 nan nan nan nan nan nan nan nan nan 46 46 47 48 48 48 48 47 47 47 46 44 43 42 41 40 38 35
30 32 33 34 35 35 36 35 nan 34 34 36 37 39 41 42 42 42 43 45 nan nan 47 47 nan 46 48 51 51 49 48 47 47 46 45 43 42 40 37 35 33 30
30 32 33 34 35 35 35 36 36 36 36 37 38 40 43 43 44 45 44 nan nan nan nan nan 45 46 49 49 49 49 49 48 46 44 44 43 42 41 38 34 29 27
29 33 35 36 36 36 37 38 38 38 39 39 40 41 43 45 46 46 45 44 46 nan nan nan 47 48 50 48 47 47 48 47 45 44 43 42 40 40 39 34 28 27
33 35 36 37 36 37 38 39 40 40 39 40 41 42 44 46 47 47 47 47 48 49 49 48 47 47 49 nan nan nan nan 44 41 40 39 39 38 38 36 31 28 27
37 37 37 36 37 39 40 41 42 41 40 41 42 43 45 46 48 48 48 nan nan nan 49 49 48 46 46 47 47 45 nan nan nan 36 37 37 37 36 32 28 26 26
41 39 37 36 38 41 43 43 43 41 41 41 43 44 46 48 48 49 49 49 49 50 49 47 46 45 43 nan nan nan nan nan nan 36 38 38 36 33 29 26 26 26
41 39 37 37 40 42 43 43 43 43 42 41 42 45 47 48 48 50 49 49 49 48 45 44 44 42 nan nan nan nan nan nan nan nan nan 38 35 31 28 26 26 25
39 39 38 39 41 43 43 44 44 42 40 40 43 46 47 48 49 50 50 nan 48 47 46 nan nan nan nan nan nan nan nan nan nan nan 39 36 34 31 27 26 26 25
38 38 39 39 41 42 44 44 44 42 41 43 47 49 48 48 49 49 49 50 48 46 nan nan nan nan nan nan nan nan nan nan 40 38 35 33 32 28 26 26 25 21
39 40 40 42 42 43 43 43 43 42 42 46 49 49 47 47 48 48 48 49 50 nan 50 nan nan nan nan nan nan nan nan nan nan nan 35 33 30 26 25 26 24 21
40 41 42 43 44 43 41 41 42 43 46 49 49 48 48 48 49 47 47 49 nan nan nan nan nan nan 46 nan nan nan nan nan nan 39 36 31 28 25 24 24 24 23
Wind_Direction
301 299 299 nan 303 305 nan 312 315 315 317 316 313 315 313 312 310 312 316 315 314 314 315 315 314 314 314 315 314 313 313 312 312 313 315 313 315 314 313 312 312 313
303 302 298 299 301 304 308 nan 316 nan 317 nan nan 316 316 313 314 315 314 313 313 315 317 316 315 315 316 316 316 315 314 314 314 314 314 314 315 314 313 314 314 314
302 301 302 nan 306 309 nan nan 317 316 nan nan 317 316 nan 314 315 314 nan 315 317 317 317 317 317 317 317 317 317 316 316 316 316 316 316 316 316 315 315 315 314 314
303 305 nan 304 307 313 314 314 316 nan nan nan 316 315 315 314 nan nan 315 317 316 316 316 317 318 318 318 319 319 318 317 317 317 317 317 317 317 317 317 316 315 314
306 305 306 306 309 309 312 nan nan nan nan 322 318 nan nan 315 316 317 317 315 315 315 316 317 318 319 320 320 319 317 317 317 318 317 318 318 319 318 318 317 315 315
308 308 306 306 308 310 nan nan nan nan nan nan nan 316 316 317 nan nan 318 319 nan nan nan 320 318 318 318 318 317 318 318 318 318 318 319 320 319 319 318 317 316 315
310 311 309 307 309 315 nan nan nan nan nan nan nan nan nan nan nan nan 322 nan 323 321 321 320 319 319 319 319 319 319 319 319 318 319 320 320 319 319 319 318 317 314
310 312 311 309 316 nan 321 nan nan nan nan 318 nan nan 319 nan nan 324 326 327 325 324 323 323 323 323 322 321 320 320 320 319 320 320 320 320 319 320 319 318 316 313
312 nan 315 315 321 324 nan nan nan nan nan nan nan nan 319 nan 324 326 328 329 329 328 327 326 326 325 323 321 321 321 321 321 322 321 320 320 319 319 319 317 314 312
316 319 318 318 324 325 326 nan nan nan nan nan nan nan nan 321 324 327 328 329 330 329 328 326 325 325 324 322 322 322 323 323 322 322 321 321 321 320 319 316 314 311
318 318 316 317 321 323 325 325 nan nan 314 321 nan nan nan nan 324 326 327 328 329 328 327 325 326 325 325 323 322 322 324 324 323 323 322 322 322 320 319 316 314 312
318 315 312 313 318 321 nan nan nan nan nan nan nan nan 320 nan nan nan 325 nan nan 326 325 323 322 322 323 323 324 324 324 323 323 322 322 322 321 319 317 315 314 313
314 312 308 310 315 318 nan nan nan nan nan nan nan nan nan nan nan nan nan nan 326 324 323 321 321 320 321 322 324 324 324 323 323 322 322 321 320 320 318 315 314 312
310 308 308 310 313 317 318 320 nan nan nan nan nan nan nan nan nan nan nan 327 nan nan nan nan nan nan nan 322 323 324 323 322 322 322 321 321 319 318 317 315 314 312
307 310 309 310 312 313 316 318 317 315 315 nan nan nan 322 nan nan nan nan nan nan nan nan nan 321 322 320 321 322 322 321 322 322 322 322 320 318 317 315 314 312 312
307 309 310 311 311 313 315 317 nan 316 319 321 322 324 325 326 328 328 328 327 nan nan 324 323 nan 321 322 324 322 321 322 322 322 322 321 320 318 317 315 313 312 311
307 309 310 312 312 314 316 317 318 319 320 321 323 324 326 327 328 329 329 nan nan nan nan nan 322 321 324 325 325 326 321 320 322 323 322 321 320 318 318 316 312 310
309 308 310 313 313 318 320 319 319 319 319 320 322 325 327 327 328 329 329 328 326 nan nan nan 320 323 325 325 325 326 324 322 323 324 324 323 320 318 317 316 314 310
316 312 312 316 319 320 319 317 318 319 319 320 324 327 327 327 328 327 326 326 324 321 320 320 319 321 324 nan nan nan nan 325 323 324 325 324 321 318 318 318 312 306
317 314 316 319 319 317 317 318 318 318 319 322 324 325 327 327 326 325 323 nan nan nan 320 319 317 319 324 326 327 325 nan nan nan 328 327 326 323 320 319 316 308 307
315 316 319 318 317 317 317 318 317 316 319 323 326 326 326 326 324 321 320 321 323 322 319 317 316 320 324 nan nan nan nan nan nan 329 329 327 324 320 318 312 307 309
314 316 317 315 316 316 316 317 316 317 322 325 326 325 322 320 319 318 319 321 323 322 318 315 315 312 nan nan nan nan nan nan nan nan nan 324 323 321 316 310 309 309
314 316 315 316 317 316 317 318 317 318 322 324 324 324 321 319 318 319 320 nan 322 319 314 nan nan nan nan nan nan nan nan nan nan nan 321 320 319 317 312 308 308 306
315 317 317 318 318 319 320 318 317 318 320 319 321 321 319 319 319 320 320 320 318 309 nan nan nan nan nan nan nan nan nan nan 313 319 321 316 312 312 310 306 306 318
316 317 318 321 322 323 321 319 319 318 315 316 317 317 317 316 317 318 316 312 308 nan 303 nan nan nan nan nan nan nan nan nan nan nan 323 315 307 307 305 303 303 307
316 318 319 322 324 323 320 320 317 314 312 311 312 314 316 314 311 312 311 309 nan nan nan nan nan nan 308 nan nan nan nan nan nan 322 321 313 302 302 300 297 300 302